This is the latest recevied weather packets stored in our database for station/object KQ4OSL. If no packets are shown the sender has not sent any weather packets the latest 10 day(s).
| Time | Temp. | Humidity | Pressure | Rain* | Wind** | Luminosity | Snow |
|---|---|---|---|---|---|---|---|
| 1787446855 | 23.33° C | 93% | 1017.6 hPa | 0 mm | - | 0 W/m² | - |
| 1787446554 | 23.89° C | 92% | 1017.5 hPa | 0 mm | - | 0 W/m² | - |
| 1787446250 | 23.89° C | 92% | 1017.6 hPa | 0 mm | - | 0 W/m² | - |
| 1787445946 | 23.89° C | 90% | 1017.4 hPa | 0 mm | - | 0 W/m² | - |
| 1787445642 | 24.44° C | 89% | 1017.4 hPa | 0 mm | - | 0 W/m² | - |
| 1787445333 | 24.44° C | 87% | 1017.3 hPa | 0 mm | - | 0 W/m² | - |
| 1787445033 | 25° C | 87% | 1017.5 hPa | 0 mm | - | 0 W/m² | - |
| 1787444729 | 25° C | 88% | 1017.2 hPa | 0 mm | - | 1 W/m² | - |
| 1787444426 | 25° C | 88% | 1017.4 hPa | 0 mm | - | 1 W/m² | - |
| 1787444120 | 25° C | 87% | 1017.5 hPa | 0 mm | - | 2 W/m² | - |
| 1787443820 | 25.56° C | 85% | 1017.2 hPa | 0 mm | - | 3 W/m² | - |
| 1787443519 | 25.56° C | 84% | 1017.1 hPa | 0 mm | - | 4 W/m² | - |
| 1787443215 | 26.11° C | 82% | 1017.1 hPa | 0 mm | - | 6 W/m² | - |
| 1787442909 | 26.11° C | 82% | 1017.2 hPa | 0 mm | - | 8 W/m² | - |
| 1787442605 | 26.67° C | 81% | 1017.1 hPa | 0 mm | - | 15 W/m² | - |
| 1787442301 | 26.67° C | 80% | 1017 hPa | 0 mm | - | 19 W/m² | - |
| 1787441995 | 27.22° C | 80% | 1016.9 hPa | 0 mm | - | 19 W/m² | - |
| 1787441691 | 26.67° C | 78% | 1016.9 hPa | 0 mm | - | 25 W/m² | - |
| 1787441386 | 26.67° C | 81% | 1016.8 hPa | 0 mm | - | 27 W/m² | - |
| 1787441082 | 26.67° C | 81% | 1016.9 hPa | 0 mm | - | 29 W/m² | - |
| 1787440778 | 27.22° C | 81% | 1016.9 hPa | 0 mm | - | 30 W/m² | - |
| 1787440477 | 27.78° C | 79% | 1017 hPa | 0 mm | - | 32 W/m² | - |
| 1787440174 | 27.78° C | 74% | 1016.8 hPa | 0 mm | - | 33 W/m² | - |
| 1787439870 | 28.89° C | 74% | 1017 hPa | 0 mm | - | 35 W/m² | - |
| 1787439565 | 28.89° C | 66% | 1016.8 hPa | 0 mm | - | 32 W/m² | - |
* Rain latest hour (hover to see other rain measurements)
** Current wind speed in m/s (hover to see current wind gust speed)